Погода в Архаре

Погода в Архаре : погода сейчас, прогноз погоды и архив. Всё, что Вы хотите узнать о погоде в Архаре!

Хотите узнать прогноз погоды в Архаре? Тогда Вам сюда: Погода в Архаре

Поиск расширенной информации на нашем сайте:

Другие новости

Новости СМИ2

Главная страница сайта

Новости сайта

03.07.2017

Напоминаем, что на нашем специализированном сайте Метеоцентр.Азия вы можете получить высокодетализированные автоматические прогнозы погоды по пунктам России, СНГ и мира в авиационном формате (включающие направление и скорость ветра, видимость, явления погоды, количество и форму облачности, нижнюю и верхнюю границу облачности).


Погода в Архаре - сегодня

Время (UTC), дата Ветер
(°,м/с) 
Видим.   Явления Облачность Т
(°С)
Тd
(°С)
f(%) Тe
(°С)
Pmin
(гПа)
dP
(гПа)
Po
(мм)
O2
(г/м3)
Тmin Tmax R s Состояние
почвы
18 15.04.18 090 (В) 20000 м    ясно 
-5.9 -9.5 76 -6  1010  0.3  745  308           
21 15.04.18 120 (ЮВ) 20000 м    ясно 
-1.9 -11.5 48 -3  1009.9  0.1  745  303           
03 16.04.18 220 (ЮЗ) 20000 м    ясно 
+15.1 -8.9 18 +15  1007.8  -1.3  744  285           
06 16.04.18 260 (З) 3{10}  20000 м    4/0 верхняя 
[Ci fib]
+17.8 -12 12 +18  1005.9  -1.6  743  282           
09 16.04.18 220 (ЮЗ) 20000 м    10/0 верхняя 
[Cs]
+16 -10.7 15 +16  1005.5  -0.6  742  283           
15 16.04.18 120 (ЮВ) 20000 м    ясно 
+6.4 -9.3 31 +6  1007.5  -0.2  743  293           
18 16.04.18 100 (В) 20000 м    ясно 
+7.9 -10 27 +8  1005.5  -1.8  742  291           
00 17.04.18 150 (ЮВ) 10 км    4/0 верхняя 
[Ci fib]
+12.5 -5.2 29 +12  1004.7  0.1  741  286  +5.8        сухая 
03 17.04.18 250 (З) 10 км    10/0 верхняя 
[Ci fib]
+15.8 -3.2 27 +17  1004  -0.5  741  283           
06 17.04.18 300 (СЗ) 10 км    10/0 верхняя 
[Cs]
+20.2 -2.7 21 +20  1002.5  -1.3  740  278           
09 17.04.18 320 (СЗ) 10 км    10/0 средняя, верхняя 
[Ac trans|Cs]
+17.2 -2.8 25 +18  1003.1  0.4  740  281           
15 17.04.18 010 (С) 10 км    10/0 верхняя 
[Cs]
+12.3 -3.9 32 +12  1005.4  0.3  742  286           
18 17.04.18 340 (С) 10 км    10/0 средняя, верхняя 
[Ac trans|Cs]
+8.5 -6.4 34 +9  1006.6  0.9  743  291           
21 17.04.18 340 (С) 10 км    3/0 верхняя 
[Ci fib]
+3.6 -7.1 45 +3  1008.5  1.5  744  297           
00 18.04.18 300 (СЗ) 4000 м  мгла  ясно 
+10.1 -6.2 31 +10  1009.4  1.3  745  290  +3.3        сухая 
03 18.04.18 300 (СЗ) 4000 м  мгла  ясно 
+14.7 -10.8 16 +15  1009.1  -0.1  745  286           
06 18.04.18 320 (СЗ) 20000 м    10/0 верхняя 
[Ci fib]
+16.7 -11.8 13 +17  1007.6  -1.3  744  283           
09 18.04.18 340 (С) 20000 м    10/0 верхняя 
[Ci fib]
+14.1 -12.2 15 +15  1007.3  -0.4  743  286           
15 18.04.18 тихо ()   20000 м    10/0 средняя, верхняя 
[Ac trans|Ci fib]
-0.3 -6.7 62 -0  1008.6  0.1  744  301           
18 18.04.18 тихо ()   20000 м    3/0 верхняя 
[Ci fib]
-1 -7.3 62 -1  1008.1  -0.5  743  301           
21 18.04.18 240 (ЮЗ) 10 км    10/0 средняя, верхняя 
[Ac trans|Ci fib]
+0.3 -6.4 61 +1  1009.1  744  300           
00 19.04.18 240 (ЮЗ) 4000 м  мгла  10/0 средняя, верхняя 
[Ac trans|Cs]
+5.7 -5.2 45 +7  1010  1.3  745  295  -1.4        сухая 
03 19.04.18 180 (Ю) 4000 м  мгла  10/0 средняя, верхняя 
[Ac trans|Ci fib]
+12.5 -6.5 26 +14  1010  0.4  745  288           
06 19.04.18 230 (ЮЗ) 10 км    5/0 верхняя 
[Ci fib]
+17.4 -4.9 21 +18  1007.7  -2  744  282           
09 19.04.18 190 (Ю) 20000 м    3/0 верхняя 
[Ci fib]
+17.1 -2.9 25 +18  1007.8  0.1  744  282           
Время (UTC), дата Ветер
(°,м/с) 
Видим.   Явления Облачность Т
(°С)
Тd
(°С)
f(%) Тe
(°С)
Pmin
(гПа)
dP
(гПа)
Po
(мм)
O2
(г/м3)
Тmin Tmax R s Состояние
почвы

Для получения пояснительной информации подведите курсор к названию столбца.

ПОГОДА в Архаре - архив

Всё, что Вы хотите узнать о погоде в Архаре - удобно и подробно!

Выберите нужную дату (начиная с 1 января 2015* года) и нажмите кнопку "Найти".
Будут отображены архивные сводки погоды по пункту Архара, начиная с указанной даты.


Отображать данные в формате CSV (для использования в таблицах Excel)


Внимание! Наш архив погоды предназначен исключительно для личного некоммерческого использования в познавательных целях. Если Вам необходимы официальные справки о состоянии погоды (для производственных, юридических, коммерческих и т.п. целей), обращайтесь в органы Росгидромета.

*Примечание: данная дата относится к архиву по метеостанциям СССР (Россия, СНГ, Балтия).
Архив по метеостанциям Зарубежной Европы и Азии (кроме Китая) хранится 10 дней, по другим регионам земного шара (Китай, Африка, Америка, Австралия, Океания) - 1 день.

Архара - район местоположения метеостанции


Название, широта, долгота, высота метеостанции:
Архара 49.4°ш. 130.1°д. 135 м над ур. моря [Российская Федерация]

Дополнительная информация

В oтличие oт бoльшинства пoгoдных сайтoв мы публикуем пoдрoбную метеoинфoрмацию в детальнoм прoфессиoнальнoм фoрмате.

Характеристики температуры и влажнoсти вoздуха измеряются на высoте 2 м в тени вдали oт зданий и деревьев.
Скoрoсть ветра измеряется на высoте 10 м (на урoвне рoста челoвека скoрoсть ветра ниже в 1.5-2 раза). Если метеoстанция нахoдится в гoрoде или в лесу, тo скoрoсть ветра занижена на 2-4 м/с пo сравнению с oткрытым местoм. Скoрoсть ветра над акватoриями крупных рек и oзёр, а также на вершинах хoлмoв на 2-5 м/с выше, чем в oбычных услoвиях.
Атмoсфернoе давление в разных тoчках местнoсти мoжет значительнo oтличаться oт давления на метеoстанции, в зависимoсти oт услoвий рельефа (при пoдъёме на 10 м давление пoнижается примернo на 1 мм рт.ст.).